{"data":{"norad_id":55399,"intl_designator":"2023-014J","name":"STARLINK-5276","alt_names":[],"object_type":"PAYLOAD","status":"ACTIVE","operator":null,"country":"US","launch_date":"2023-01-31","launch_site_code":"AFWTR","launch_vehicle":null,"mission":null,"orbit_class":"UNKNOWN","rcs_meters":null,"size_class":null,"mass_kg":null,"dimensions":null,"purposes":["comms"],"wikipedia_slug":null,"has_3d_model":false,"image_url":null,"decayed_at":null,"tle_current":{"epoch":"2026-05-24T23:16:43.648032Z","epoch_age_seconds":81252,"freshness":"FRESH","line1":"1 55399U 23014J   26144.96994963 -.00000015  00000+0  65264-5 0  9997","line2":"2 55399  69.9992 232.0349 0003465 270.9496  89.1266 14.98329459183485","mean_motion":14.98329459,"eccentricity":0.0003465,"inclination_deg":69.9992,"raan_deg":232.0349,"arg_perigee_deg":270.9496,"mean_anomaly_deg":89.1266,"bstar":6.5264e-6,"rev_number":18348,"period_min":96.107033826931,"perigee_km":569.64932152639,"apogee_km":574.4658063592,"semimajor_km":6950.1945639428,"source":"CELESTRAK","updated_at":"2026-05-25T13:38:17.793516Z"}}}